• In Slovakia
  • List of Countries
  • For 7 days
  • Water Temperature
  • Satellite Maps
  • Weather Map
  • Weather Widgets
  • user-avatar
    Login

    Hourly Weather Wiktoria

    Today, 19 November, Sunday

    Time Temperature Precipitation Wind Pressure Humidity
    00:00 +17°C° 0 mm 3 mps 752 mmHg 91%
    01:00 +17°C° 0 mm 3 mps 752 mmHg 90%
    02:00 +17°C° 0 mm 3 mps 752 mmHg 89%
    03:00 +16°C° 0 mm 3 mps 752 mmHg 88%
    04:00 +15°C° 0 mm 2 mps 752 mmHg 87%
    05:00 +17°C° 0 mm 3 mps 752 mmHg 82%
    06:00 +18°C° 0 mm 4 mps 753 mmHg 77%
    07:00 +19°C° 0 mm 5 mps 753 mmHg 72%
    08:00 +21°C° 0 mm 5 mps 753 mmHg 66%
    09:00 +22°C° 0 mm 5 mps 753 mmHg 59%
    10:00 +25°C° 0 mm 5 mps 753 mmHg 53%
    11:00 +26°C° 0 mm 5 mps 753 mmHg 50%
    12:00 +28°C° 0 mm 4 mps 753 mmHg 46%
    13:00 +29°C° 0 mm 4 mps 753 mmHg 42%
    14:00 +29°C° 0 mm 4 mps 753 mmHg 43%
    15:00 +29°C° 0 mm 3 mps 752 mmHg 43%
    16:00 +29°C° 0 mm 3 mps 752 mmHg 43%
    17:00 +27°C° 0 mm 2 mps 752 mmHg 48%
    18:00 +25°C° 0 mm 2 mps 752 mmHg 53%
    19:00 +24°C° 0 mm 1 mps 752 mmHg 58%
    20:00 +23°C° 0 mm 2 mps 753 mmHg 60%
    21:00 +21°C° 0 mm 2 mps 753 mmHg 62%
    22:00 +20°C° 0 mm 2 mps 754 mmHg 64%
    23:00 +19°C° 0 mm 2 mps 754 mmHg 66%

    Tomorrow, 20 November, Monday

    Time Temperature Precipitation Wind Pressure Humidity
    00:00 +19°C° 0 mm 3 mps 754 mmHg 67%
    01:00 +18°C° 0 mm 3 mps 754 mmHg 69%
    02:00 +17°C° 0 mm 3 mps 754 mmHg 72%
    03:00 +17°C° 0 mm 3 mps 754 mmHg 74%
    04:00 +16°C° 0 mm 3 mps 754 mmHg 76%
    05:00 +17°C° 0 mm 3 mps 755 mmHg 73%
    06:00 +18°C° 0 mm 4 mps 755 mmHg 71%
    07:00 +19°C° 0 mm 4 mps 756 mmHg 68%
    08:00 +21°C° 0 mm 4 mps 756 mmHg 61%
    09:00 +24°C° 0 mm 3 mps 756 mmHg 55%
    10:00 +26°C° 0 mm 3 mps 756 mmHg 49%
    11:00 +27°C° 0 mm 3 mps 755 mmHg 45%
    12:00 +28°C° 0 mm 3 mps 755 mmHg 42%
    13:00 +30°C° 0 mm 3 mps 754 mmHg 39%
    14:00 +30°C° 0 mm 3 mps 753 mmHg 38%
    15:00 +30°C° 0 mm 3 mps 753 mmHg 37%
    16:00 +31°C° 0 mm 3 mps 752 mmHg 35%
    17:00 +29°C° 0 mm 2 mps 752 mmHg 41%
    18:00 +27°C° 0 mm 2 mps 753 mmHg 46%
    19:00 +25°C° 0 mm 1 mps 753 mmHg 51%
    20:00 +24°C° 0 mm 1 mps 753 mmHg 52%
    21:00 +23°C° 0 mm 2 mps 754 mmHg 53%
    22:00 +21°C° 0 mm 2 mps 754 mmHg 54%
    23:00 +20°C° 0 mm 2 mps 754 mmHg 57%

    Day after tomorrow, 21 November, Tuesday

    Time Temperature Precipitation Wind Pressure Humidity
    00:00 +19°C° 0 mm 2 mps 754 mmHg 59%
    01:00 +19°C° 0 mm 3 mps 753 mmHg 62%
    02:00 +18°C° 0 mm 3 mps 753 mmHg 66%
    03:00 +17°C° 0 mm 3 mps 753 mmHg 71%
    04:00 +17°C° 0 mm 3 mps 753 mmHg 76%
    05:00 +18°C° 0 mm 4 mps 754 mmHg 74%
    06:00 +18°C° 0 mm 4 mps 754 mmHg 71%
    07:00 +19°C° 0 mm 5 mps 754 mmHg 69%
    08:00 +21°C° 0 mm 4 mps 754 mmHg 63%
    09:00 +23°C° 0 mm 4 mps 754 mmHg 56%
    10:00 +26°C° 0 mm 4 mps 754 mmHg 50%
    11:00 +28°C° 0 mm 3 mps 753 mmHg 45%
    12:00 +29°C° 0 mm 3 mps 753 mmHg 41%
    13:00 +31°C° 0 mm 3 mps 752 mmHg 36%
    14:00 +31°C° 0 mm 2 mps 752 mmHg 34%
    15:00 +31°C° 0 mm 2 mps 751 mmHg 32%
    16:00 +32°C° 0 mm 2 mps 751 mmHg 30%
    17:00 +30°C° 0 mm 2 mps 751 mmHg 36%
    18:00 +28°C° 0 mm 2 mps 751 mmHg 41%
    19:00 +26°C° 0 mm 2 mps 751 mmHg 47%
    20:00 +24°C° 0 mm 2 mps 751 mmHg 49%
    21:00 +23°C° 0 mm 2 mps 751 mmHg 52%
    22:00 +21°C° 0 mm 2 mps 752 mmHg 54%
    23:00 +21°C° 0 mm 2 mps 751 mmHg 57%

    22 November, Wednesday

    Time Temperature Precipitation Wind Pressure Humidity
    00:00 +20°C° 0 mm 3 mps 751 mmHg 60%
    01:00 +19°C° 0 mm 3 mps 751 mmHg 63%
    02:00 +18°C° 0 mm 3 mps 751 mmHg 65%
    03:00 +18°C° 0 mm 3 mps 751 mmHg 67%
    04:00 +17°C° 0 mm 3 mps 751 mmHg 70%
    05:00 +18°C° 0 mm 4 mps 751 mmHg 69%
    06:00 +19°C° 0 mm 4 mps 751 mmHg 68%
    07:00 +20°C° 0 mm 5 mps 752 mmHg 66%
    08:00 +22°C° 0 mm 4 mps 751 mmHg 60%
    09:00 +25°C° 0 mm 4 mps 751 mmHg 53%
    10:00 +27°C° 0 mm 4 mps 751 mmHg 47%
    11:00 +28°C° 0 mm 4 mps 750 mmHg 42%
    12:00 +30°C° 0 mm 3 mps 750 mmHg 37%
    13:00 +31°C° 0 mm 2 mps 749 mmHg 32%
    14:00 +31°C° 0 mm 2 mps 748 mmHg 31%
    15:00 +32°C° 0 mm 2 mps 748 mmHg 30%
    16:00 +32°C° 0 mm 2 mps 747 mmHg 29%
    17:00 +30°C° 0 mm 2 mps 747 mmHg 34%
    18:00 +28°C° 0 mm 2 mps 747 mmHg 39%
    19:00 +26°C° 0 mm 2 mps 747 mmHg 44%
    20:00 +25°C° 0 mm 2 mps 747 mmHg 49%
    21:00 +22°C° 0 mm 3 mps 747 mmHg 54%
    22:00 +21°C° 0 mm 3 mps 748 mmHg 60%
    23:00 +20°C° 0 mm 3 mps 747 mmHg 63%

    23 November, Thursday

    Time Temperature Precipitation Wind Pressure Humidity
    00:00 +20°C° 0 mm 3 mps 747 mmHg 67%
    01:00 +19°C° 0 mm 3 mps 747 mmHg 71%
    02:00 +19°C° 0 mm 3 mps 746 mmHg 70%
    03:00 +18°C° 0 mm 4 mps 746 mmHg 70%
    04:00 +18°C° 0 mm 4 mps 746 mmHg 70%
    05:00 +19°C° 0 mm 4 mps 747 mmHg 68%
    06:00 +20°C° 0 mm 4 mps 747 mmHg 66%
    07:00 +21°C° 0 mm 5 mps 747 mmHg 64%
    08:00 +23°C° 0 mm 5 mps 747 mmHg 56%
    09:00 +26°C° 0 mm 4 mps 747 mmHg 49%
    10:00 +29°C° 0 mm 4 mps 747 mmHg 42%
    11:00 +30°C° 0 mm 4 mps 747 mmHg 36%
    12:00 +31°C° 0 mm 3 mps 746 mmHg 30%
    13:00 +34°C° 0 mm 3 mps 745 mmHg 24%
    14:00 +33°C° 0 mm 3 mps 745 mmHg 26%
    15:00 +33°C° 0 mm 3 mps 745 mmHg 27%
    16:00 +31°C° 0 mm 3 mps 745 mmHg 28%
    17:00 +30°C° 0 mm 2 mps 745 mmHg 31%
    18:00 +28°C° 0 mm 2 mps 745 mmHg 34%
    19:00 +27°C° 0 mm 2 mps 745 mmHg 37%
    20:00 +25°C° 0.1 mm 2 mps 746 mmHg 42%
    21:00 +23°C° 0.1 mm 1 mps 746 mmHg 46%
    22:00 +22°C° 0.1 mm 1 mps 746 mmHg 50%
    23:00 +21°C° 0.3 mm 1 mps 746 mmHg 58%

    24 November, Friday

    Time Temperature Precipitation Wind Pressure Humidity
    00:00 +19°C° 0.3 mm 2 mps 746 mmHg 65%
    01:00 +19°C° 0.3 mm 2 mps 746 mmHg 72%
    02:00 +19°C° 0.1 mm 2 mps 747 mmHg 72%
    03:00 +19°C° 0.1 mm 2 mps 747 mmHg 73%
    04:00 +19°C° 0.1 mm 2 mps 747 mmHg 73%
    05:00 +19°C° 0.1 mm 2 mps 747 mmHg 71%
    06:00 +20°C° 0.1 mm 2 mps 748 mmHg 70%
    07:00 +21°C° 0.1 mm 2 mps 748 mmHg 68%
    08:00 +24°C° 0 mm 2 mps 748 mmHg 60%
    09:00 +26°C° 0 mm 2 mps 748 mmHg 52%
    10:00 +28°C° 0 mm 3 mps 748 mmHg 44%
    11:00 +29°C° 0 mm 3 mps 748 mmHg 39%
    12:00 +30°C° 0 mm 3 mps 747 mmHg 35%
    13:00 +33°C° 0 mm 3 mps 747 mmHg 30%
    14:00 +33°C° 0 mm 3 mps 747 mmHg 32%
    15:00 +31°C° 0 mm 3 mps 747 mmHg 33%
    16:00 +32°C° 0 mm 4 mps 746 mmHg 34%
    17:00 +28°C° 0.5 mm 3 mps 747 mmHg 46%
    18:00 +25°C° 0.5 mm 3 mps 747 mmHg 59%
    19:00 +21°C° 0.5 mm 3 mps 747 mmHg 71%
    20:00 +21°C° 0.2 mm 3 mps 748 mmHg 74%
    21:00 +20°C° 0.2 mm 2 mps 748 mmHg 78%
    22:00 +19°C° 0.2 mm 2 mps 748 mmHg 82%
    23:00 +19°C° 0.1 mm 3 mps 748 mmHg 83%
    Show more